Voltar ao catálogo

ION SCV-011

AtivoCiênciaPO
NORAD 56957·PAYLOAD·🇮🇹 Italy

Lançado Jun 12, 2023 de Vandenberg Space Force Base

Loading…

Próximas Passagens (próximas 24 horas)

TLE

AtualizadoSource: Space-Track

Época: Sep 13, 2026, 23:47 UTC

1 56957U 23084AB  26256.99097399  .00004217  00000-0  15009-3 0  9997
2 56957  98.1357  92.5572 0008483  88.8090 271.4120 15.29582284179384

Acompanhe ION SCV-011 em tempo real com AllMySat

Download on the App Store